Location: Chin
(49.7667°N, 112.4500°W)
Time: 11:07:08
(UTC+00:00)

Envisat - Pass Details

Date: 27 November 2021
Orbit: 764 x 766 km, 98.2° (Epoch: 25 January)

Event Time Altitude Azimuth Distance (km) Brightness Sun altitude
Rises 01:09:11 0° 218° (SW) 3,223 7.2 -14.7°
Reaches altitude 10° 01:12:44 10° 245° (WSW) 2,304 6.8 -15.3°
Maximum altitude 01:15:13 14° 274° (W) 2,067 6.3 -15.6°
Drops below altitude 10° 01:17:42 10° 304° (NW) 2,313 6.1 -16.0°
Sets 01:21:18 0° 330° (NNW) 3,246 6.5 -16.6°
